COSMO-SKYMED 1

Last updated on Mon Sep 21 2026 00:02:09 GMT+0000 (Coordinated Universal Time)

1 31598U 07023A 26263.56613742 .00001633 00000+0 14543-3 0 9993 2 31598 97.8838 96.2513 0001783 81.7965 278.3459 14.97466862 44067
UTC large
Height (km)
Speed (km/s)
/
Latitude / Longitude
Inclination (degrees)
Orbital Period (minutes)
Azimuth
Elevation
Range (km)
Doppler Factor

Next 0 passes for location: London (51.5072 / 0.1276)

No passes found over London.
COSMO-SKYMED 1